Data No, UTC Date,UTC Time,Latitude,Longitude,Course(deg),Temp(degC),Sal(psu)
552,2020/12/11,9:11,42-36.93N,141-37.07E,211,8.968,33.1835
553,2020/12/11,9:12,42-36.71N,141-36.89E,208,8.989,33.2242
554,2020/12/11,9:13,42-36.45N,141-36.82E,183,8.887,33.2479
555,2020/12/11,9:14,42-36.17N,141-36.82E,179,8.687,33.2726
556,2020/12/11,9:15,42-35.86N,141-36.83E,178,8.715,33.2661
557,2020/12/11,9:16,42-35.56N,141-36.85E,177,9.102,33.2892
558,2020/12/11,9:17,42-35.24N,141-36.87E,177,9.828,33.3392
559,2020/12/11,9:18,42-34.92N,141-36.88E,178,9.989,33.5017
560,2020/12/11,9:19,42-34.60N,141-36.89E,178,9.936,33.6041
561,2020/12/11,9:20,42-34.27N,141-36.90E,178,10.019,33.6263
562,2020/12/11,9:21,42-33.95N,141-36.91E,178,10.2,33.6509
563,2020/12/11,9:22,42-33.62N,141-36.92E,178,10.291,33.6776
564,2020/12/11,9:23,42-33.28N,141-36.93E,178,10.38,33.7001
565,2020/12/11,9:24,42-32.95N,141-36.94E,178,10.42,33.7182
566,2020/12/11,9:25,42-32.61N,141-36.95E,178,10.422,33.688
567,2020/12/11,9:26,42-32.27N,141-36.97E,178,10.452,33.7125
568,2020/12/11,9:27,42-31.93N,141-36.99E,177,10.566,33.708
569,2020/12/11,9:28,42-31.57N,141-37.00E,178,10.756,33.7083
570,2020/12/11,9:29,42-31.23N,141-37.02E,178,10.868,33.735
571,2020/12/11,9:30,42-30.88N,141-37.03E,178,10.908,33.7256
572,2020/12/11,9:31,42-30.53N,141-37.05E,178,10.892,33.7324
573,2020/12/11,9:32,42-30.17N,141-37.06E,178,10.866,33.7277
574,2020/12/11,9:33,42-29.81N,141-37.08E,178,10.879,33.7133
575,2020/12/11,9:34,42-29.46N,141-37.09E,178,10.899,33.7104
576,2020/12/11,9:35,42-29.09N,141-37.11E,178,10.938,33.7049
577,2020/12/11,9:36,42-28.73N,141-37.12E,178,10.959,33.731
578,2020/12/11,9:37,42-28.36N,141-37.13E,178,10.963,33.72
579,2020/12/11,9:38,42-27.99N,141-37.14E,178,10.967,33.7176
580,2020/12/11,9:39,42-27.63N,141-37.15E,178,10.978,33.7188
581,2020/12/11,9:40,42-27.26N,141-37.17E,178,11.007,33.7145
582,2020/12/11,9:41,42-26.88N,141-37.17E,178,11.045,33.7085
583,2020/12/11,9:42,42-26.50N,141-37.19E,178,11.045,33.7201
584,2020/12/11,9:43,42-26.12N,141-37.21E,178,11.18,33.7357
585,2020/12/11,9:44,42-25.75N,141-37.21E,179,11.436,33.7441
586,2020/12/11,9:45,42-25.36N,141-37.21E,180,11.525,33.733
587,2020/12/11,9:46,42-24.98N,141-37.20E,181,11.557,33.7495
588,2020/12/11,9:47,42-24.60N,141-37.18E,181,11.498,33.7583
589,2020/12/11,9:48,42-24.21N,141-37.17E,181,11.398,33.7332
590,2020/12/11,9:49,42-23.84N,141-37.16E,180,11.24,33.747
591,2020/12/11,9:50,42-23.45N,141-37.16E,180,11.085,33.7353
592,2020/12/11,9:51,42-23.08N,141-37.15E,180,10.953,33.7486
593,2020/12/11,9:52,42-22.70N,141-37.15E,180,10.949,33.7466
594,2020/12/11,9:53,42-22.32N,141-37.14E,180,11.029,33.7429
595,2020/12/11,9:54,42-21.95N,141-37.13E,181,11.101,33.7417
596,2020/12/11,9:55,42-21.56N,141-37.13E,180,11.192,33.7462
597,2020/12/11,9:56,42-21.19N,141-37.12E,180,11.201,33.7622
598,2020/12/11,9:57,42-20.81N,141-37.11E,181,11.083,33.7563
599,2020/12/11,9:58,42-20.43N,141-37.10E,181,10.981,33.7553
600,2020/12/11,9:59,42-20.06N,141-37.09E,181,10.845,33.7525
601,2020/12/11,10:00,42-19.67N,141-37.07E,181,10.789,33.7388
602,2020/12/11,10:01,42-19.30N,141-37.07E,180,10.766,33.7266
603,2020/12/11,10:02,42-18.92N,141-37.06E,181,10.784,33.7198
604,2020/12/11,10:03,42-18.53N,141-37.05E,181,10.801,33.7383
605,2020/12/11,10:04,42-18.15N,141-37.04E,181,10.833,33.7471
606,2020/12/11,10:05,42-17.76N,141-37.03E,181,10.845,33.7255
607,2020/12/11,10:06,42-17.39N,141-37.02E,180,10.859,33.7383
608,2020/12/11,10:07,42-17.00N,141-37.02E,180,10.884,33.7422
609,2020/12/11,10:08,42-16.61N,141-37.01E,180,10.918,33.725
610,2020/12/11,10:09,42-16.23N,141-37.00E,180,10.944,33.733
611,2020/12/11,10:10,42-15.84N,141-37.00E,180,10.946,33.7421
612,2020/12/11,10:11,42-15.46N,141-36.99E,180,10.946,33.7417
613,2020/12/11,10:12,42-15.07N,141-36.98E,180,10.958,33.7412
614,2020/12/11,10:13,42-14.69N,141-36.97E,180,10.971,33.7295
615,2020/12/11,10:14,42-14.34N,141-36.97E,180,10.97,33.7283
616,2020/12/11,10:15,42-14.02N,141-36.96E,181,10.965,33.7312
617,2020/12/11,10:16,42-13.68N,141-36.95E,180,10.96,33.7508
618,2020/12/11,10:17,42-13.39N,141-36.95E,180,10.963,33.747
619,2020/12/11,10:18,42-13.10N,141-36.94E,180,10.962,33.7315
620,2020/12/11,10:19,42-12.83N,141-36.94E,180,10.968,33.7443
621,2020/12/11,10:20,42-12.54N,141-36.93E,181,10.964,33.7304
622,2020/12/11,10:21,42-12.26N,141-36.93E,180,10.962,33.7317
623,2020/12/11,10:22,42-11.98N,141-36.93E,180,10.948,33.7252
624,2020/12/11,10:23,42-11.69N,141-36.93E,179,11.014,33.7428
625,2020/12/11,10:24,42-11.41N,141-36.94E,179,11.192,33.7416
626,2020/12/11,10:25,42-11.12N,141-36.93E,180,11.304,33.7304
627,2020/12/11,10:26,42-10.84N,141-36.93E,180,11.354,33.7447
628,2020/12/11,10:27,42-10.56N,141-36.93E,180,11.381,33.7549
629,2020/12/11,10:28,42-10.31N,141-36.93E,179,11.405,33.7365
630,2020/12/11,10:29,42-10.03N,141-36.93E,179,11.408,33.7499
631,2020/12/11,10:30,42-09.74N,141-36.93E,179,11.416,33.7463
632,2020/12/11,10:31,42-09.47N,141-36.93E,179,11.419,33.7492
633,2020/12/11,10:32,42-09.18N,141-36.93E,180,11.421,33.7542
634,2020/12/11,10:33,42-08.90N,141-36.94E,179,11.424,33.7392
635,2020/12/11,10:34,42-08.62N,141-36.94E,178,11.426,33.7421
636,2020/12/11,10:35,42-08.33N,141-36.96E,178,11.434,33.7447
637,2020/12/11,10:36,42-08.05N,141-36.97E,178,11.439,33.7576
638,2020/12/11,10:37,42-07.77N,141-36.97E,178,11.44,33.7609
639,2020/12/11,10:38,42-07.48N,141-36.98E,178,11.439,33.7433
640,2020/12/11,10:39,42-07.20N,141-36.99E,178,11.432,33.7512
641,2020/12/11,10:40,42-06.87N,141-37.01E,178,11.444,33.7367
642,2020/12/11,10:41,42-06.59N,141-37.02E,178,11.483,33.7327
643,2020/12/11,10:42,42-06.34N,141-37.03E,178,11.544,33.7349
644,2020/12/11,10:43,42-06.06N,141-37.04E,178,11.683,33.7527
645,2020/12/11,10:44,42-05.78N,141-37.06E,177,11.803,33.7618
646,2020/12/11,10:45,42-05.49N,141-37.07E,177,11.858,33.7376
647,2020/12/11,10:46,42-05.18N,141-37.09E,177,11.902,33.7535
648,2020/12/11,10:47,42-04.89N,141-37.11E,177,11.921,33.7621
649,2020/12/11,10:48,42-04.63N,141-37.12E,177,11.927,33.7471
650,2020/12/11,10:49,42-04.36N,141-37.13E,178,11.921,33.7524
651,2020/12/11,10:50,42-04.07N,141-37.15E,178,11.923,33.7402
652,2020/12/11,10:51,42-03.78N,141-37.16E,178,11.929,33.7589
653,2020/12/11,10:52,42-03.49N,141-37.16E,178,11.931,33.7552
654,2020/12/11,10:53,42-03.20N,141-37.17E,178,11.933,33.75
655,2020/12/11,10:54,42-02.91N,141-37.18E,178,11.941,33.7411
656,2020/12/11,10:55,42-02.62N,141-37.19E,178,11.944,33.732
657,2020/12/11,10:56,42-02.32N,141-37.21E,178,11.931,33.7609
658,2020/12/11,10:57,42-02.04N,141-37.21E,179,11.909,33.7452
659,2020/12/11,10:58,42-01.74N,141-37.22E,179,11.888,33.7506
660,2020/12/11,10:59,42-01.45N,141-37.23E,178,11.871,33.7586
661,2020/12/11,11:00,42-01.16N,141-37.25E,176,12.041,33.7488
662,2020/12/11,11:01,42-00.87N,141-37.27E,177,12.195,33.7449
663,2020/12/11,11:02,42-00.58N,141-37.28E,178,12.249,33.7271
664,2020/12/11,11:03,42-00.29N,141-37.29E,178,12.291,33.7314
665,2020/12/11,11:04,42-00.01N,141-37.30E,178,12.327,33.7288
666,2020/12/11,11:05,41-59.72N,141-37.31E,178,12.345,33.7175
667,2020/12/11,11:06,41-59.43N,141-37.32E,178,12.366,33.7154
668,2020/12/11,11:07,41-59.15N,141-37.33E,178,12.385,33.7155
669,2020/12/11,11:08,41-58.86N,141-37.34E,178,12.394,33.705
670,2020/12/11,11:09,41-58.58N,141-37.35E,178,12.398,33.7142
671,2020/12/11,11:10,41-58.29N,141-37.36E,179,12.4,33.7007
672,2020/12/11,11:11,41-57.99N,141-37.36E,179,12.405,33.7147
673,2020/12/11,11:12,41-57.71N,141-37.37E,179,12.416,33.7178
674,2020/12/11,11:13,41-57.42N,141-37.38E,179,12.427,33.7104
675,2020/12/11,11:14,41-57.13N,141-37.38E,179,12.434,33.7107
676,2020/12/11,11:15,41-56.84N,141-37.39E,179,12.44,33.6977
677,2020/12/11,11:16,41-56.55N,141-37.39E,179,12.446,33.719
678,2020/12/11,11:17,41-56.27N,141-37.39E,179,12.45,33.7063
679,2020/12/11,11:18,41-55.97N,141-37.40E,179,12.448,33.7102
680,2020/12/11,11:19,41-55.69N,141-37.40E,179,12.452,33.7147
681,2020/12/11,11:20,41-55.40N,141-37.40E,179,12.457,33.7068
682,2020/12/11,11:21,41-55.10N,141-37.41E,179,12.456,33.707
683,2020/12/11,11:22,41-54.81N,141-37.41E,179,12.45,33.7007
684,2020/12/11,11:23,41-54.52N,141-37.41E,180,12.45,33.7197
685,2020/12/11,11:24,41-54.23N,141-37.41E,179,12.451,33.723
686,2020/12/11,11:25,41-53.94N,141-37.41E,179,12.438,33.7195
687,2020/12/11,11:26,41-53.64N,141-37.42E,179,12.413,33.7143
688,2020/12/11,11:27,41-53.35N,141-37.42E,179,12.381,33.709
689,2020/12/11,11:28,41-53.06N,141-37.42E,179,12.342,33.7066
690,2020/12/11,11:29,41-52.77N,141-37.43E,178,12.302,33.7248
691,2020/12/11,11:30,41-52.48N,141-37.44E,178,12.31,33.7115
692,2020/12/11,11:31,41-52.18N,141-37.45E,178,12.338,33.7238
693,2020/12/11,11:32,41-51.89N,141-37.46E,178,12.357,33.7267
694,2020/12/11,11:33,41-51.60N,141-37.47E,178,12.341,33.7124
695,2020/12/11,11:34,41-51.31N,141-37.48E,178,12.315,33.7133
696,2020/12/11,11:35,41-51.03N,141-37.49E,178,12.274,33.6957
697,2020/12/11,11:36,41-50.73N,141-37.50E,178,12.232,33.7253
698,2020/12/11,11:37,41-50.45N,141-37.51E,178,12.214,33.7112
699,2020/12/11,11:38,41-50.16N,141-37.52E,177,12.186,33.7125
700,2020/12/11,11:39,41-49.88N,141-37.53E,178,12.181,33.717
701,2020/12/11,11:40,41-49.58N,141-37.54E,178,12.183,33.7074
702,2020/12/11,11:41,41-49.26N,141-37.55E,178,12.179,33.7016
703,2020/12/11,11:42,41-48.98N,141-37.58E,174,12.162,33.6913
704,2020/12/11,11:43,41-48.73N,141-37.64E,169,12.144,33.7241
705,2020/12/11,11:44,41-48.46N,141-37.72E,166,11.99,33.7203
706,2020/12/11,11:45,41-48.18N,141-37.82E,166,11.91,33.7123
707,2020/12/11,11:46,41-47.89N,141-37.90E,167,11.888,33.7268
708,2020/12/11,11:47,41-47.62N,141-37.99E,167,11.86,33.7316
709,2020/12/11,11:48,41-47.33N,141-38.08E,166,11.85,33.723
710,2020/12/11,11:49,41-47.06N,141-38.16E,167,11.848,33.7232
711,2020/12/11,11:50,41-46.78N,141-38.25E,167,11.838,33.7323
712,2020/12/11,11:51,41-46.50N,141-38.34E,167,11.821,33.7538
713,2020/12/11,11:52,41-46.22N,141-38.42E,167,11.8,33.7504
714,2020/12/11,11:53,41-45.94N,141-38.51E,166,11.735,33.7416
715,2020/12/11,11:54,41-45.64N,141-38.61E,167,11.675,33.7346
716,2020/12/11,11:55,41-45.36N,141-38.71E,162,11.641,33.735
717,2020/12/11,11:56,41-45.09N,141-38.85E,159,12.337,33.7579
718,2020/12/11,11:57,41-44.84N,141-38.95E,163,12.646,33.7701
719,2020/12/11,11:58,41-44.57N,141-39.05E,163,12.726,33.7411
720,2020/12/11,11:59,41-44.29N,141-39.16E,163,12.751,33.746
721,2020/12/11,12:00,41-44.01N,141-39.27E,164,12.799,33.7405
722,2020/12/11,12:01,41-43.72N,141-39.36E,167,12.814,33.7329
723,2020/12/11,12:02,41-43.43N,141-39.43E,168,12.83,33.7527
724,2020/12/11,12:03,41-43.14N,141-39.51E,169,12.871,33.7335
725,2020/12/11,12:04,41-42.86N,141-39.58E,169,12.859,33.7388
726,2020/12/11,12:05,41-42.57N,141-39.66E,168,12.833,33.7374
727,2020/12/11,12:06,41-42.28N,141-39.74E,168,12.874,33.7306
728,2020/12/11,12:07,41-42.00N,141-39.81E,169,12.86,33.733
729,2020/12/11,12:08,41-41.67N,141-39.89E,169,12.833,33.7332
730,2020/12/11,12:09,41-41.38N,141-39.97E,168,12.809,33.7463
731,2020/12/11,12:10,41-41.10N,141-40.04E,169,12.79,33.7456
732,2020/12/11,12:11,41-40.81N,141-40.11E,169,12.788,33.7239
733,2020/12/11,12:12,41-40.52N,141-40.19E,169,12.79,33.7411
734,2020/12/11,12:13,41-40.27N,141-40.25E,168,12.798,33.743
735,2020/12/11,12:14,41-39.99N,141-40.32E,169,12.822,33.7327
736,2020/12/11,12:15,41-39.70N,141-40.40E,168,12.877,33.7551
737,2020/12/11,12:16,41-39.41N,141-40.47E,168,12.905,33.737
738,2020/12/11,12:17,41-39.13N,141-40.55E,168,12.921,33.7258
739,2020/12/11,12:18,41-38.84N,141-40.62E,169,12.925,33.7325
740,2020/12/11,12:19,41-38.55N,141-40.70E,168,12.94,33.7145
741,2020/12/11,12:20,41-38.26N,141-40.78E,168,12.971,33.7147
742,2020/12/11,12:21,41-37.97N,141-40.86E,168,12.982,33.7299
743,2020/12/11,12:22,41-37.69N,141-40.93E,168,12.993,33.7191
744,2020/12/11,12:23,41-37.40N,141-41.02E,168,13.017,33.7313
745,2020/12/11,12:24,41-37.11N,141-41.10E,168,13.044,33.7026
746,2020/12/11,12:25,41-36.77N,141-41.19E,168,13.081,33.7166
747,2020/12/11,12:26,41-36.51N,141-41.26E,169,13.108,33.7211
748,2020/12/11,12:27,41-36.18N,141-41.34E,169,13.135,33.719
749,2020/12/11,12:28,41-35.92N,141-41.41E,169,13.166,33.7192
750,2020/12/11,12:29,41-35.62N,141-41.49E,168,13.163,33.7293
751,2020/12/11,12:30,41-35.32N,141-41.57E,168,13.125,33.7091
752,2020/12/11,12:31,41-35.02N,141-41.65E,169,13.013,33.712
753,2020/12/11,12:32,41-34.72N,141-41.72E,169,12.994,33.7074
754,2020/12/11,12:33,41-34.42N,141-41.79E,170,12.95,33.7179
755,2020/12/11,12:34,41-34.11N,141-41.87E,168,12.957,33.7334
756,2020/12/11,12:35,41-33.81N,141-41.94E,169,13.012,33.7326
757,2020/12/11,12:36,41-33.50N,141-42.02E,169,12.999,33.7194
758,2020/12/11,12:37,41-33.20N,141-42.09E,169,12.984,33.723
759,2020/12/11,12:38,41-32.90N,141-42.17E,169,12.976,33.7207
760,2020/12/11,12:39,41-32.59N,141-42.24E,169,12.947,33.7358
761,2020/12/11,12:40,41-32.29N,141-42.32E,169,12.982,33.7387
762,2020/12/11,12:41,41-31.98N,141-42.39E,170,12.969,33.7275
763,2020/12/11,12:42,41-31.68N,141-42.46E,170,12.991,33.7293
764,2020/12/11,12:43,41-31.37N,141-42.53E,170,13.03,33.7326
765,2020/12/11,12:44,41-31.06N,141-42.60E,169,13.036,33.7377
766,2020/12/11,12:45,41-30.76N,141-42.67E,170,13.038,33.7403
767,2020/12/11,12:46,41-30.45N,141-42.74E,170,13.027,33.7128
768,2020/12/11,12:47,41-30.15N,141-42.81E,170,13.047,33.7207
769,2020/12/11,12:48,41-29.85N,141-42.89E,170,13.066,33.7232
770,2020/12/11,12:49,41-29.55N,141-42.95E,170,13.099,33.733
771,2020/12/11,12:50,41-29.25N,141-43.01E,171,13.12,33.7345
772,2020/12/11,12:51,41-28.94N,141-43.07E,171,13.101,33.7145
773,2020/12/11,12:52,41-28.64N,141-43.14E,171,13.102,33.7329
774,2020/12/11,12:53,41-28.34N,141-43.20E,171,13.092,33.7184
775,2020/12/11,12:54,41-28.03N,141-43.26E,171,13.083,33.7255
776,2020/12/11,12:55,41-27.70N,141-43.33E,171,13.091,33.728
777,2020/12/11,12:56,41-27.43N,141-43.38E,171,13.121,33.7145
778,2020/12/11,12:57,41-27.09N,141-43.44E,172,13.133,33.7219
779,2020/12/11,12:58,41-26.79N,141-43.50E,172,13.125,33.7086
780,2020/12/11,12:59,41-26.49N,141-43.55E,172,13.145,33.7344
781,2020/12/11,13:00,41-26.19N,141-43.60E,172,13.172,33.7274
782,2020/12/11,13:01,41-25.93N,141-43.65E,171,13.169,33.7065
783,2020/12/11,13:02,41-25.64N,141-43.70E,172,13.069,33.7187
784,2020/12/11,13:03,41-25.35N,141-43.76E,172,13.071,33.709
785,2020/12/11,13:04,41-25.02N,141-43.81E,172,13.106,33.7071
786,2020/12/11,13:05,41-24.74N,141-43.87E,171,13.143,33.705
787,2020/12/11,13:06,41-24.45N,141-43.92E,173,13.143,33.7247
788,2020/12/11,13:07,41-24.17N,141-43.97E,173,13.157,33.723
789,2020/12/11,13:08,41-23.89N,141-44.02E,172,13.173,33.7166
790,2020/12/11,13:09,41-23.61N,141-44.07E,171,13.192,33.7111
791,2020/12/11,13:10,41-23.33N,141-44.12E,172,13.196,33.6974
792,2020/12/11,13:11,41-23.04N,141-44.16E,175,13.182,33.7236
793,2020/12/11,13:12,41-22.80N,141-44.18E,176,13.193,33.7025
794,2020/12/11,13:13,41-22.52N,141-44.20E,176,13.19,33.7149
795,2020/12/11,13:14,41-22.22N,141-44.22E,177,13.177,33.7093
796,2020/12/11,13:15,41-21.94N,141-44.23E,177,13.193,33.7159
797,2020/12/11,13:16,41-21.66N,141-44.26E,176,13.207,33.709
798,2020/12/11,13:17,41-21.38N,141-44.29E,175,13.22,33.6999
799,2020/12/11,13:18,41-21.09N,141-44.32E,174,13.243,33.7123
800,2020/12/11,13:19,41-20.80N,141-44.36E,174,13.256,33.7031
801,2020/12/11,13:20,41-20.52N,141-44.39E,175,13.264,33.7093
802,2020/12/11,13:21,41-20.23N,141-44.42E,175,13.27,33.702
803,2020/12/11,13:22,41-19.95N,141-44.45E,176,13.269,33.6914
804,2020/12/11,13:23,41-19.67N,141-44.47E,176,13.232,33.7158
805,2020/12/11,13:24,41-19.38N,141-44.51E,173,13.175,33.714
806,2020/12/11,13:25,41-19.11N,141-44.56E,173,13.158,33.7007
807,2020/12/11,13:26,41-18.83N,141-44.60E,173,13.172,33.7013
808,2020/12/11,13:27,41-18.56N,141-44.63E,174,13.212,33.6963
809,2020/12/11,13:28,41-18.29N,141-44.67E,174,13.23,33.704
810,2020/12/11,13:29,41-18.01N,141-44.71E,174,13.24,33.7023
811,2020/12/11,13:30,41-17.74N,141-44.74E,174,13.252,33.6933
812,2020/12/11,13:31,41-17.46N,141-44.78E,174,13.259,33.6933
813,2020/12/11,13:32,41-17.19N,141-44.82E,173,13.276,33.7076
814,2020/12/11,13:33,41-16.91N,141-44.86E,173,13.295,33.695
815,2020/12/11,13:34,41-16.63N,141-44.90E,173,13.333,33.7038
816,2020/12/11,13:35,41-16.35N,141-44.94E,174,13.346,33.7098
817,2020/12/11,13:36,41-16.07N,141-44.98E,173,13.348,33.7126
818,2020/12/11,13:37,41-15.80N,141-45.02E,174,13.35,33.6923
819,2020/12/11,13:38,41-15.52N,141-45.06E,174,13.35,33.7015
820,2020/12/11,13:39,41-15.24N,141-45.09E,174,13.351,33.6965
821,2020/12/11,13:40,41-14.97N,141-45.12E,175,13.355,33.679
822,2020/12/11,13:41,41-14.69N,141-45.15E,175,13.36,33.6878
823,2020/12/11,13:42,41-14.41N,141-45.18E,174,13.361,33.6995
824,2020/12/11,13:43,41-14.13N,141-45.22E,174,13.348,33.6968
825,2020/12/11,13:44,41-13.85N,141-45.25E,175,13.346,33.7027
826,2020/12/11,13:45,41-13.58N,141-45.28E,175,13.34,33.7047
827,2020/12/11,13:46,41-13.29N,141-45.31E,175,13.33,33.6921
828,2020/12/11,13:47,41-13.02N,141-45.34E,175,13.327,33.7045
829,2020/12/11,13:48,41-12.75N,141-45.37E,175,13.316,33.7112
830,2020/12/11,13:49,41-12.47N,141-45.40E,175,13.302,33.7013
831,2020/12/11,13:50,41-12.19N,141-45.43E,175,13.292,33.6935
832,2020/12/11,13:51,41-11.91N,141-45.46E,176,13.277,33.7053
833,2020/12/11,13:52,41-11.64N,141-45.48E,176,13.272,33.6791
834,2020/12/11,13:53,41-11.37N,141-45.50E,176,13.264,33.6769
835,2020/12/11,13:54,41-11.08N,141-45.53E,176,13.246,33.6822
836,2020/12/11,13:55,41-10.81N,141-45.56E,173,13.209,33.6835
837,2020/12/11,13:56,41-10.53N,141-45.60E,173,13.204,33.6743
838,2020/12/11,13:57,41-10.26N,141-45.64E,175,13.213,33.6841
839,2020/12/11,13:58,41-09.98N,141-45.67E,175,13.219,33.6672
840,2020/12/11,13:59,41-09.70N,141-45.70E,174,13.216,33.6735
841,2020/12/11,14:00,41-09.43N,141-45.73E,174,13.21,33.6772
842,2020/12/11,14:01,41-09.14N,141-45.77E,174,13.202,33.6748
843,2020/12/11,14:02,41-08.87N,141-45.80E,174,13.215,33.6807
844,2020/12/11,14:03,41-08.60N,141-45.84E,174,13.225,33.669
845,2020/12/11,14:04,41-08.32N,141-45.87E,175,13.232,33.6724
846,2020/12/11,14:05,41-08.05N,141-45.89E,177,13.236,33.6805
847,2020/12/11,14:06,41-07.77N,141-45.89E,181,13.239,33.6771
848,2020/12/11,14:07,41-07.50N,141-45.87E,183,13.244,33.6797
849,2020/12/11,14:08,41-07.23N,141-45.84E,185,13.249,33.6706
850,2020/12/11,14:09,41-06.96N,141-45.80E,187,13.247,33.6746
851,2020/12/11,14:10,41-06.69N,141-45.75E,187,13.248,33.6843
852,2020/12/11,14:11,41-06.42N,141-45.69E,188,13.248,33.675
853,2020/12/11,14:12,41-06.16N,141-45.64E,189,13.253,33.6839
854,2020/12/11,14:13,41-05.89N,141-45.59E,188,13.253,33.6753
855,2020/12/11,14:14,41-05.62N,141-45.53E,189,13.254,33.6691
856,2020/12/11,14:15,41-05.36N,141-45.49E,186,13.257,33.6891
857,2020/12/11,14:16,41-05.08N,141-45.47E,181,13.258,33.6845
858,2020/12/11,14:17,41-04.82N,141-45.48E,176,13.258,33.6849
859,2020/12/11,14:18,41-04.56N,141-45.53E,172,13.261,33.6952
860,2020/12/11,14:19,41-04.29N,141-45.58E,170,13.257,33.6849
861,2020/12/11,14:20,41-04.02N,141-45.64E,170,13.256,33.6895
862,2020/12/11,14:21,41-03.75N,141-45.70E,170,13.265,33.6909
863,2020/12/11,14:22,41-03.49N,141-45.77E,170,13.269,33.6951
864,2020/12/11,14:23,41-03.22N,141-45.83E,170,13.269,33.6792
865,2020/12/11,14:24,41-02.95N,141-45.89E,170,13.269,33.6941
866,2020/12/11,14:25,41-02.68N,141-45.95E,170,13.267,33.683
867,2020/12/11,14:26,41-02.41N,141-46.01E,170,13.263,33.677
868,2020/12/11,14:27,41-02.14N,141-46.07E,170,13.252,33.7012
869,2020/12/11,14:28,41-01.87N,141-46.13E,170,13.252,33.6787
870,2020/12/11,14:29,41-01.59N,141-46.19E,170,13.254,33.6887
871,2020/12/11,14:30,41-01.32N,141-46.25E,171,13.261,33.6823
872,2020/12/11,14:31,41-01.05N,141-46.31E,171,13.254,33.6783
873,2020/12/11,14:32,41-00.78N,141-46.37E,170,13.252,33.7002
874,2020/12/11,14:33,41-00.50N,141-46.43E,171,13.251,33.6794
875,2020/12/11,14:34,41-00.22N,141-46.48E,171,13.283,33.6946
876,2020/12/11,14:35,40-59.95N,141-46.54E,171,13.337,33.6859
877,2020/12/11,14:36,40-59.68N,141-46.60E,171,13.373,33.6905
878,2020/12/11,14:37,40-59.40N,141-46.66E,170,13.379,33.7214
879,2020/12/11,14:38,40-59.13N,141-46.72E,170,13.363,33.7038
880,2020/12/11,14:39,40-58.85N,141-46.79E,169,13.511,33.7061
881,2020/12/11,14:40,40-58.59N,141-46.86E,167,13.646,33.7016
882,2020/12/11,14:41,40-58.33N,141-46.96E,161,13.686,33.697
883,2020/12/11,14:42,40-58.04N,141-47.13E,153,13.695,33.7101
884,2020/12/11,14:43,40-57.80N,141-47.29E,151,13.698,33.7036
885,2020/12/11,14:44,40-57.58N,141-47.45E,151,13.697,33.7035
886,2020/12/11,14:45,40-57.35N,141-47.62E,151,13.692,33.7087
887,2020/12/11,14:46,40-57.11N,141-47.80E,151,13.68,33.7004
888,2020/12/11,14:47,40-56.86N,141-47.97E,150,13.647,33.707
889,2020/12/11,14:48,40-56.62N,141-48.16E,150,13.619,33.704
890,2020/12/11,14:49,40-56.37N,141-48.34E,150,13.597,33.7047
891,2020/12/11,14:50,40-56.13N,141-48.52E,150,13.571,33.7012
892,2020/12/11,14:51,40-55.88N,141-48.71E,149,13.473,33.6954
893,2020/12/11,14:52,40-55.64N,141-48.91E,148,13.34,33.7029
894,2020/12/11,14:53,40-55.40N,141-49.10E,149,13.345,33.7099
895,2020/12/11,14:54,40-55.15N,141-49.29E,150,13.371,33.7065
896,2020/12/11,14:55,40-54.91N,141-49.47E,150,13.39,33.7084
897,2020/12/11,14:56,40-54.67N,141-49.66E,149,13.381,33.6963
898,2020/12/11,14:57,40-54.42N,141-49.85E,149,13.36,33.6994
899,2020/12/11,14:58,40-54.18N,141-50.04E,149,13.36,33.7094
900,2020/12/11,14:59,40-53.93N,141-50.23E,149,13.366,33.7003
901,2020/12/11,15:00,40-53.69N,141-50.41E,149,13.352,33.7092
902,2020/12/11,15:01,40-53.45N,141-50.60E,150,13.356,33.6976
903,2020/12/11,15:02,40-53.20N,141-50.79E,149,13.332,33.6995
904,2020/12/11,15:03,40-52.96N,141-50.99E,147,13.274,33.7172
905,2020/12/11,15:04,40-52.71N,141-51.20E,146,13.223,33.7117
906,2020/12/11,15:05,40-52.49N,141-51.41E,144,13.157,33.7213
907,2020/12/11,15:06,40-52.25N,141-51.62E,145,13.205,33.7094
908,2020/12/11,15:07,40-52.01N,141-51.84E,145,13.353,33.7027
909,2020/12/11,15:08,40-51.78N,141-52.05E,146,13.461,33.7247
910,2020/12/11,15:09,40-51.53N,141-52.27E,145,13.445,33.7154
911,2020/12/11,15:10,40-51.30N,141-52.48E,146,13.416,33.7319
912,2020/12/11,15:11,40-51.06N,141-52.69E,146,13.391,33.7103
913,2020/12/11,15:12,40-50.81N,141-52.91E,145,13.385,33.6966
914,2020/12/11,15:13,40-50.58N,141-53.12E,146,13.376,33.7172
915,2020/12/11,15:14,40-50.34N,141-53.34E,146,13.376,33.71
916,2020/12/11,15:15,40-50.10N,141-53.54E,146,13.375,33.7129
917,2020/12/11,15:16,40-49.86N,141-53.76E,146,13.371,33.7065
918,2020/12/11,15:17,40-49.61N,141-53.97E,146,13.368,33.6929
919,2020/12/11,15:18,40-49.37N,141-54.18E,146,13.374,33.7139
920,2020/12/11,15:19,40-49.12N,141-54.39E,146,13.378,33.7087
921,2020/12/11,15:20,40-48.88N,141-54.60E,146,13.384,33.7107
922,2020/12/11,15:21,40-48.64N,141-54.81E,146,13.388,33.7112
923,2020/12/11,15:22,40-48.40N,141-55.02E,146,13.388,33.7003
924,2020/12/11,15:23,40-48.16N,141-55.23E,147,13.388,33.7147
925,2020/12/11,15:24,40-47.91N,141-55.44E,146,13.397,33.7129
926,2020/12/11,15:25,40-47.67N,141-55.65E,147,13.4,33.7081
927,2020/12/11,15:26,40-47.43N,141-55.85E,147,13.398,33.717
928,2020/12/11,15:27,40-47.18N,141-56.06E,147,13.394,33.7014
929,2020/12/11,15:28,40-46.94N,141-56.27E,146,13.392,33.7176
930,2020/12/11,15:29,40-46.69N,141-56.48E,147,13.389,33.7153
931,2020/12/11,15:30,40-46.46N,141-56.68E,147,13.382,33.7107
932,2020/12/11,15:31,40-46.22N,141-56.89E,147,13.381,33.7186
933,2020/12/11,15:32,40-45.97N,141-57.10E,147,13.359,33.7052
934,2020/12/11,15:33,40-45.73N,141-57.30E,147,13.336,33.7187
935,2020/12/11,15:34,40-45.49N,141-57.51E,146,13.313,33.7149
936,2020/12/11,15:35,40-45.25N,141-57.72E,146,13.313,33.7181
937,2020/12/11,15:36,40-45.01N,141-57.93E,146,13.336,33.7263
938,2020/12/11,15:37,40-44.77N,141-58.13E,147,13.352,33.7185
939,2020/12/11,15:38,40-44.54N,141-58.33E,147,13.355,33.7184